Wetterstats.de || Aktuelle Messwerte || Aktuelle Wetterkarten NEU! || Radar / Satellit NEU! || Wetterarchiv || Langzeitwerte NEU! || Klim. Kenntage || Met. Ereignisse || Agrarwerte || Echtzeitwerte

Monatsübersicht für Juli 2020 Diagramm
 
Wetter Information zur Wetteranzeige
Zeitraffer
Tageslänge (hh:mm)
Höchsttemperatur in °C
Uhrzeit
Tiefsttemperatur in °C
Uhrzeit
Luftfeuchte (max., in %)
Uhrzeit
Luftfeuchte (min., in %)
Uhrzeit
Luftdruck (max., in hPa)
Uhrzeit
Luftdruck (min., in hPa)
Uhrzeit
Luftdruck (Ø, in hPa)
Regenrate (max, mm/h)
Uhrzeit
Niederschlag in mm
Verdunstung in mm
Solar in W/m² (Ø)
Solar in W/m² (max.)
UV-Index (max.)
Sonnenscheindauer (hh:mm)
Windrichtung (Ø)
Windstärke (Ø in km/h)
Windstärke (Ø in bft)
Windböe (max., in km/h)
Uhrzeit
Windböe (max., in bft)
Uhrzeit
Taupunkt (max., in °C)
Uhrzeit
Taupunkt (min., in °C)
Uhrzeit
Windchill (min., in °C)
Uhrzeit
Gewitterindex (max.)
Uhrzeit
Waldbrandindex (max.)
Uhrzeit
Graslandfeuerindex (max.)
Uhrzeit
Staubsturm-Index (max.)
Uhrzeit
01
Kein Zeitraffer vorhanden
16:49
21.9
18:00 Uhr
15.8
00:35 Uhr

92
21:45 Uhr
57
02:55 Uhr
1007.7
14:30 Uhr

1006.0
04:40 Uhr
1006.7
2,400
11:55 Uhr
1,000
2.362
178
592
16:35 Uhr
4.2
16:35 Uhr

01:14:00
5,5
1
29,0
08:40 Uhr

4
17.1
15:25 Uhr
9.8
02:25 Uhr
15.5
08:55 Uhr
10
22:25 Uhr
1.5
02:55 Uhr
4.0
03:20 Uhr
0.0
00:00 Uhr
02
Kein Zeitraffer vorhanden
16:48
24.3
17:45 Uhr
15.2
04:50 Uhr

94
05:10 Uhr
51
15:10 Uhr
1011.1
23:05 Uhr

1006.4
00:00 Uhr
1009.2
0,000
00:00 Uhr
0,000
3.937
330
1029
14:55 Uhr
7.7
13:40 Uhr

07:15:00
5,6
1
25,7
08:55 Uhr

4
15.5
00:00 Uhr
12.6
15:25 Uhr
14.6
07:30 Uhr
9
00:00 Uhr
1.2
18:10 Uhr
3.7
17:30 Uhr
0.0
00:00 Uhr
03
Kein Zeitraffer vorhanden
16:46
22.7
17:10 Uhr
15.1
23:40 Uhr

87
06:15 Uhr
49
14:25 Uhr
1016.2
23:55 Uhr

1011.0
00:10 Uhr
1014.2
0,000
00:00 Uhr
0,000
4.318
360
1149
14:00 Uhr
7.4
13:05 Uhr

06:28:00
6,7
1
30,6
14:15 Uhr

5
14.4
00:15 Uhr
10.8
14:25 Uhr
12.1
07:10 Uhr
8
00:00 Uhr
1.9
15:05 Uhr
4.2
18:05 Uhr
0.0
00:00 Uhr
04
Kein Zeitraffer vorhanden
16:45
24.8
15:25 Uhr
12.8
03:20 Uhr

90
03:40 Uhr
37
16:15 Uhr
1016.5
00:20 Uhr

1012.0
21:55 Uhr
1014.0
0,000
00:00 Uhr
0,000
5.537
366
1128
12:40 Uhr
7.6
12:30 Uhr

07:45:00
7,9
2
41,8
14:00 Uhr

6
14.3
23:25 Uhr
8.6
16:15 Uhr
12.8
03:20 Uhr
8
23:00 Uhr
2.2
16:30 Uhr
4.5
17:00 Uhr
0.0
00:00 Uhr
05
Kein Zeitraffer vorhanden
16:43
26.6
15:10 Uhr
18.8
23:25 Uhr

92
19:05 Uhr
55
15:15 Uhr
1012.3
00:05 Uhr

1007.8
16:40 Uhr
1009.3
2,400
18:20 Uhr
0,600
3.480
195
1048
12:50 Uhr
9.4
13:20 Uhr

01:30:00
10,1
2
46,7
13:20 Uhr

6
18.9
19:05 Uhr
14.3
00:00 Uhr
17.2
21:10 Uhr
12
22:20 Uhr
2.3
15:00 Uhr
4.5
16:00 Uhr
0.0
00:00 Uhr
06
Kein Zeitraffer vorhanden
16:42
20.3
12:50 Uhr
13.3
23:55 Uhr

93
00:25 Uhr
45
12:25 Uhr
1014.8
23:50 Uhr

1007.3
04:00 Uhr
1009.9
0,000
00:00 Uhr
0,000
4.801
383
1130
14:20 Uhr
6.5
12:50 Uhr

09:32:00
10,6
2
46,7
13:30 Uhr

6
17.7
00:55 Uhr
7.4
12:25 Uhr
10.9
23:05 Uhr
12
00:00 Uhr
1.8
12:50 Uhr
3.8
12:55 Uhr
0.0
00:00 Uhr
07
Kein Zeitraffer vorhanden
16:40
19.8
16:55 Uhr
10.6
05:15 Uhr

93
23:50 Uhr
42
16:55 Uhr
1018.5
11:15 Uhr

1014.7
20:25 Uhr
1016.8
2,400
21:55 Uhr
1,000
4.039
340
1141
12:05 Uhr
7.0
12:55 Uhr

06:08:00
8,1
2
38,6
21:50 Uhr

5
11.3
22:55 Uhr
6.1
17:20 Uhr
6.8
07:20 Uhr
3
22:20 Uhr
3.1
17:00 Uhr
5.9
12:50 Uhr
0.0
00:00 Uhr
08
Kein Zeitraffer vorhanden
16:38
17.9
13:40 Uhr
11.1
04:45 Uhr

93
00:00 Uhr
55
12:35 Uhr
1016.5
23:35 Uhr

1014.2
06:45 Uhr
1015.0
2,400
08:50 Uhr
0,200
2.438
231
1107
11:30 Uhr
6.3
13:30 Uhr

03:50:00
4,3
1
22,5
08:25 Uhr

4
11.7
21:05 Uhr
8.0
12:35 Uhr
10.5
08:20 Uhr
4
00:25 Uhr
1.6
12:10 Uhr
4.8
16:50 Uhr
0.0
00:00 Uhr
09
Kein Zeitraffer vorhanden
16:37
18.9
12:15 Uhr
12.6
04:25 Uhr

94
15:40 Uhr
68
12:10 Uhr
1016.4
00:40 Uhr

1009.4
19:25 Uhr
1013.5
4,800
14:10 Uhr
5,000
1.168
114
417
11:20 Uhr
3.6
11:20 Uhr

00:10:00
4,4
1
33,8
19:30 Uhr

5
17.4
19:25 Uhr
10.8
00:00 Uhr
12.6
04:25 Uhr
9
22:20 Uhr
1.7
12:00 Uhr
4.7
12:00 Uhr
0.0
00:00 Uhr
10
Kein Zeitraffer vorhanden
16:35
24.5
15:20 Uhr
12.2
23:45 Uhr

96
05:25 Uhr
68
15:20 Uhr
1016.5
23:40 Uhr

1005.4
15:15 Uhr
1009.7
9,600
08:55 Uhr
3,800
2.489
221
891
11:50 Uhr
6.9
12:50 Uhr

03:29:00
6,5
1
48,3
18:05 Uhr

6
19.2
13:05 Uhr
10.2
23:40 Uhr
11.2
22:50 Uhr
10
12:15 Uhr
0.0
00:00 Uhr
0.6
07:35 Uhr
0.0
00:00 Uhr
11
Kein Zeitraffer vorhanden
16:33
19.9
17:40 Uhr
9.6
05:10 Uhr

94
02:55 Uhr
51
17:45 Uhr
1024.4
23:50 Uhr

1016.3
00:00 Uhr
1021.1
0,000
00:00 Uhr
0,000
3.480
330
1026
11:50 Uhr
6.5
12:05 Uhr

06:50:00
4,5
1
29,0
10:10 Uhr

4
11.5
21:05 Uhr
8.2
12:15 Uhr
8.9
07:35 Uhr
3
22:15 Uhr
0.0
00:00 Uhr
1.1
18:05 Uhr
0.0
00:00 Uhr
12
Kein Zeitraffer vorhanden
16:31
20.8
16:15 Uhr
6.9
05:05 Uhr

95
01:50 Uhr
46
16:15 Uhr
1026.9
12:25 Uhr

1024.3
00:00 Uhr
1026.0
0,000
00:00 Uhr
0,000
3.988
356
1116
13:10 Uhr
7.1
12:45 Uhr

07:02:00
5,3
1
33,8
13:15 Uhr

5
11.2
08:55 Uhr
6.2
05:05 Uhr
6.9
05:05 Uhr
3
23:10 Uhr
0.0
00:00 Uhr
2.4
16:20 Uhr
0.0
00:00 Uhr
13
Kein Zeitraffer vorhanden
16:29
23.7
17:40 Uhr
9.3
05:35 Uhr

94
05:45 Uhr
42
16:35 Uhr
1026.3
01:35 Uhr

1019.4
23:35 Uhr
1023.5
0,000
00:00 Uhr
0,000
4.928
447
1018
13:20 Uhr
6.8
13:20 Uhr

11:33:00
3,8
1
27,4
10:30 Uhr

4
12.7
21:35 Uhr
8.2
05:40 Uhr
9.3
05:35 Uhr
4
21:00 Uhr
0.7
17:05 Uhr
3.3
17:15 Uhr
0.0
00:00 Uhr
14
Kein Zeitraffer vorhanden
16:26
28.9
17:05 Uhr
9.5
05:15 Uhr

93
05:00 Uhr
26
17:20 Uhr
1019.5
00:05 Uhr

1010.5
21:10 Uhr
1014.7
0,000
00:00 Uhr
0,000
5.486
443
1021
13:50 Uhr
6.7
13:00 Uhr

10:34:00
4,1
1
32,2
12:30 Uhr

5
13.5
23:15 Uhr
6.8
17:35 Uhr
9.5
05:15 Uhr
7
23:00 Uhr
5.9
10:15 Uhr
5.9
00:00 Uhr
0.0
00:00 Uhr
15
Zeitraffer
16:24
19.8
09:25 Uhr
14.1
23:50 Uhr

96
22:00 Uhr
63
00:10 Uhr
1013.5
22:25 Uhr

1011.1
04:55 Uhr
1012.2
2,400
12:40 Uhr
3,200
1.423
123
695
09:15 Uhr
2.3
09:15 Uhr

01:11:00
3,7
1
20,9
02:05 Uhr

4
15.3
19:25 Uhr
11.8
01:35 Uhr
13.7
12:40 Uhr
8
22:10 Uhr
5.6
01:00 Uhr
5.9
00:00 Uhr
0.0
00:00 Uhr


 
Wetter Information zur Wetteranzeige
Zeitraffer
Tageslänge (hh:mm)
Höchsttemperatur in °C
Uhrzeit
Tiefsttemperatur in °C
Uhrzeit
Luftfeuchte (max., in %)
Uhrzeit
Luftfeuchte (min., in %)
Uhrzeit
Luftdruck (max., in hPa)
Uhrzeit
Luftdruck (min., in hPa)
Uhrzeit
Luftdruck (Ø, in hPa)
Regenrate (max, mm/h)
Uhrzeit
Niederschlag in mm
Verdunstung in mm
Solar in W/m² (Ø)
Solar in W/m² (max.)
UV-Index (max.)
Sonnenscheindauer (hh:mm)
Windrichtung (Ø)
Windstärke (Ø in km/h)
Windstärke (Ø in bft)
Windböe (max., in km/h)
Uhrzeit
Windböe (max., in bft)
Uhrzeit
Taupunkt (max., in °C)
Uhrzeit
Taupunkt (min., in °C)
Uhrzeit
Windchill (min., in °C)
Uhrzeit
Gewitterindex (max.)
Uhrzeit
Waldbrandindex (max.)
Uhrzeit
Graslandfeuerindex (max.)
Uhrzeit
Staubsturm-Index (max.)
Uhrzeit
16
Zeitraffer
16:22
20.3
15:45 Uhr
13.0
02:00 Uhr

97
00:45 Uhr
58
15:45 Uhr
1017.2
23:35 Uhr

1013.5
00:00 Uhr
1015.0
28,800
10:55 Uhr
5,800
2.921
310
1150
13:15 Uhr
6.3
13:00 Uhr

05:56:00
3,7
1
40,2
15:50 Uhr

5
14.7
11:40 Uhr
10.3
10:55 Uhr
12.5
08:00 Uhr
6
00:00 Uhr
1.9
09:35 Uhr
5.0
10:30 Uhr
0.0
00:00 Uhr
17
Zeitraffer
16:20
22.4
17:40 Uhr
10.3
04:50 Uhr

97
05:50 Uhr
70
17:45 Uhr
1020.1
23:45 Uhr

1017.0
01:05 Uhr
1018.2
0,000
00:00 Uhr
0,000
1.880
186
1060
14:30 Uhr
6.5
14:30 Uhr

02:55:00
2,7
1
19,3
11:55 Uhr

3
17.4
19:50 Uhr
9.7
04:50 Uhr
10.3
04:50 Uhr
10
22:10 Uhr
0.0
00:00 Uhr
2.7
17:50 Uhr
0.0
00:00 Uhr
18
Zeitraffer
16:17
28.1
17:40 Uhr
11.3
05:25 Uhr

97
04:55 Uhr
47
17:40 Uhr
1020.8
02:10 Uhr

1017.6
18:50 Uhr
1019.5
0,000
00:00 Uhr
0,000
3.962
371
1088
13:35 Uhr
6.9
12:45 Uhr

08:14:00
2,0
0
24,1
13:35 Uhr

4
17.1
11:00 Uhr
10.8
05:30 Uhr
11.3
05:25 Uhr
10
22:05 Uhr
1.2
18:00 Uhr
5.1
18:05 Uhr
0.0
00:00 Uhr
19
Zeitraffer
16:14
31.2
16:25 Uhr
14.3
04:45 Uhr

95
02:35 Uhr
39
16:20 Uhr
1018.8
00:00 Uhr

1013.2
18:20 Uhr
1016.0
4,800
19:10 Uhr
1,000
4.572
410
987
13:35 Uhr
6.7
13:20 Uhr

08:54:00
2,3
1
27,4
19:10 Uhr

4
19.2
10:40 Uhr
13.4
04:35 Uhr
14.3
04:45 Uhr
12
22:05 Uhr
2.7
16:05 Uhr
5.9
15:15 Uhr
0.0
00:00 Uhr
20
Zeitraffer
16:11
24.2
12:45 Uhr
12.7
23:55 Uhr

96
03:20 Uhr
58
12:10 Uhr
1019.3
23:30 Uhr

1013.0
07:40 Uhr
1015.5
7,200
13:15 Uhr
0,800
3.531
299
1074
12:50 Uhr
6.4
12:40 Uhr

07:37:00
5,1
1
40,2
10:40 Uhr

5
18.3
08:50 Uhr
11.1
23:45 Uhr
12.7
23:55 Uhr
12
00:10 Uhr
3.8
13:05 Uhr
5.9
09:40 Uhr
0.0
00:00 Uhr
21
Zeitraffer
16:09
21.7
16:00 Uhr
9.7
05:45 Uhr

95
02:40 Uhr
38
14:45 Uhr
1022.0
23:30 Uhr

1019.3
00:00 Uhr
1020.9
0,000
00:00 Uhr
0,000
4.420
406
1102
13:40 Uhr
7.1
13:15 Uhr

08:21:00
5,0
1
27,4
12:50 Uhr

4
12.3
08:35 Uhr
6.6
14:45 Uhr
9.7
05:45 Uhr
3
00:00 Uhr
4.9
15:05 Uhr
5.9
00:05 Uhr
0.0
00:00 Uhr
22
Zeitraffer
16:06
21.8
16:55 Uhr
7.8
05:25 Uhr

94
05:35 Uhr
41
15:30 Uhr
1022.8
08:25 Uhr

1019.2
19:35 Uhr
1021.4
0,000
00:00 Uhr
0,000
4.039
383
1078
14:45 Uhr
7.1
13:55 Uhr

08:45:00
4,4
1
27,4
11:15 Uhr

4
11.6
08:50 Uhr
6.8
05:25 Uhr
7.8
05:25 Uhr
2
00:00 Uhr
5.1
16:00 Uhr
5.9
00:00 Uhr
0.0
00:00 Uhr
23
Zeitraffer
16:03
23.7
17:55 Uhr
12.2
04:55 Uhr

89
05:20 Uhr
36
17:00 Uhr
1019.4
00:05 Uhr

1013.9
21:10 Uhr
1016.9
0,000
00:00 Uhr
0,000
4.521
429
1090
12:45 Uhr
7.0
13:35 Uhr

09:34:00
3,1
1
30,6
13:45 Uhr

5
11.7
21:50 Uhr
6.6
18:10 Uhr
12.2
04:55 Uhr
3
03:50 Uhr
5.6
17:50 Uhr
5.9
00:00 Uhr
0.0
00:00 Uhr
24
Zeitraffer
16:01
26.4
14:50 Uhr
8.9
05:15 Uhr

94
05:25 Uhr
38
14:55 Uhr
1014.0
00:00 Uhr

1007.6
15:50 Uhr
1010.2
0,000
00:00 Uhr
0,000
3.988
281
1035
14:50 Uhr
6.9
12:25 Uhr

05:35:00
5,5
1
33,8
17:35 Uhr

5
13.6
20:45 Uhr
7.8
05:20 Uhr
8.9
05:15 Uhr
7
22:55 Uhr
5.9
17:00 Uhr
5.9
00:00 Uhr
0.0
00:00 Uhr
25
Zeitraffer
15:57
26.6
18:30 Uhr
11.5
05:15 Uhr

94
05:25 Uhr
49
16:35 Uhr
1013.5
08:55 Uhr

1010.8
19:35 Uhr
1012.1
0,000
00:00 Uhr
0,000
3.073
290
1041
14:00 Uhr
7.0
13:20 Uhr

05:05:00
2,1
1
22,5
13:10 Uhr

4
16.0
19:50 Uhr
10.3
05:05 Uhr
11.5
05:15 Uhr
9
21:55 Uhr
5.7
19:05 Uhr
5.9
00:00 Uhr
0.0
00:00 Uhr
26
Zeitraffer
15:55
22.3
18:00 Uhr
13.9
03:55 Uhr

96
23:55 Uhr
70
09:10 Uhr
1015.6
23:25 Uhr

1007.8
08:30 Uhr
1010.9
48,000
14:45 Uhr
7,000
2.108
207
824
16:30 Uhr
4.5
16:25 Uhr

03:40:00
3,0
1
30,6
10:40 Uhr

5
18.0
16:35 Uhr
12.6
03:50 Uhr
13.9
03:55 Uhr
9
16:20 Uhr
5.1
09:20 Uhr
5.9
00:00 Uhr
0.0
00:00 Uhr
27
Zeitraffer
15:51
25.1
14:55 Uhr
11.2
05:45 Uhr

97
04:10 Uhr
50
15:00 Uhr
1018.2
10:10 Uhr

1011.9
23:50 Uhr
1016.0
2,400
19:35 Uhr
0,200
3.150
296
978
14:50 Uhr
5.5
14:50 Uhr

06:01:00
3,0
1
25,7
19:35 Uhr

4
18.0
09:50 Uhr
10.6
05:45 Uhr
11.2
05:45 Uhr
10
21:50 Uhr
0.8
14:35 Uhr
5.3
15:05 Uhr
0.0
00:00 Uhr
28
Zeitraffer
15:48
26.9
15:55 Uhr
16.6
01:40 Uhr

92
01:30 Uhr
44
16:50 Uhr
1012.9
23:45 Uhr

1006.6
08:15 Uhr
1009.1
2,400
06:25 Uhr
0,200
4.902
401
1018
13:10 Uhr
6.6
12:00 Uhr

08:24:00
6,4
1
37,0
14:15 Uhr

5
17.0
10:10 Uhr
13.0
16:55 Uhr
16.6
01:40 Uhr
10
00:00 Uhr
3.1
16:50 Uhr
5.9
03:35 Uhr
0.0
00:00 Uhr
29
Zeitraffer
15:45
22.0
16:40 Uhr
11.6
04:35 Uhr

92
04:10 Uhr
42
16:50 Uhr
1018.8
23:30 Uhr

1013.0
00:00 Uhr
1016.5
0,000
00:00 Uhr
0,000
3.988
290
1079
12:25 Uhr
6.7
12:25 Uhr

05:55:00
7,1
2
41,8
13:20 Uhr

6
13.3
00:00 Uhr
7.5
12:25 Uhr
11.6
04:35 Uhr
7
00:00 Uhr
3.1
16:35 Uhr
5.9
00:00 Uhr
0.0
00:00 Uhr
30
Zeitraffer
15:42
23.4
16:55 Uhr
9.4
02:55 Uhr

92
02:20 Uhr
40
17:05 Uhr
1021.3
11:15 Uhr

1018.7
00:00 Uhr
1020.0
0,000
00:00 Uhr
0,000
4.699
444
1071
12:10 Uhr
6.9
12:15 Uhr

09:36:00
5,1
1
33,8
16:10 Uhr

5
12.1
21:50 Uhr
7.8
03:35 Uhr
9.4
02:55 Uhr
4
21:45 Uhr
5.9
16:25 Uhr
5.9
00:00 Uhr
0.0
00:00 Uhr
31
Zeitraffer
15:39
27.3
16:50 Uhr
9.6
04:15 Uhr

94
05:20 Uhr
35
14:40 Uhr
1019.6
08:00 Uhr

1017.4
17:50 Uhr
1018.6
0,000
00:00 Uhr
0,000
5.182
469
874
13:05 Uhr
6.7
12:55 Uhr

12:26:00
4,5
1
33,8
10:05 Uhr

5
13.8
22:10 Uhr
8.2
04:15 Uhr
9.6
04:15 Uhr
7
21:45 Uhr
5.9
14:15 Uhr
5.9
00:00 Uhr
0.0
00:00 Uhr
Stationsstandorte || Wetterblog || Wissenswertes || Downloads || Seitenhistorie || Partner || Impressum / Datenschutz